Regional Weather Roundup
Issued by NWS

Home | Current Version | Previous Version | Graphics & Text | Print | Product List | Glossary On
Versions: 1 2 3 4 5 6 7 8 9 10 11 12 13 14 15 16 17 18 19 20 21 22 23 24 25 26 27 28 29 30 31 32 33 34 35 36 37 38 39 40 41 42 43 44 45 46 47 48 49 50
000
ASUS43 KFSD 211902
RWRSD

WEATHER ROUNDUP FOR SOUTH DAKOTA
NATIONAL WEATHER SERVICE SIOUX FALLS SD
200 PM CDT MON JUL 21 2014

NOTE: "FAIR" INDICATES FEW OR NO CLOUDS BELOW 12,000 FEET WITH NO
SIGNIFICANT WEATHER AND/OR OBSTRUCTIONS TO VISIBILITY.


SDZ001>005-009-010-012>017-212000-
NORTHWEST AND NORTH CENTRAL SOUTH DAKOTA

CITY           SKY/WX    TMP DP  RH WIND       PRES   REMARKS
BUFFALO          N/A     89  63  41 NW14G23   29.76F
FAITH            N/A     90  65  43 W10G23    29.78S
MOBRIDGE       PTSUNNY   87  75  67 SE12      29.71F HX  96
$$

SDZ012>016-024>037-041>051-057-063-072>074-212000-
SOUTHWEST AND SOUTH CENTRAL SOUTH DAKOTA

CITY           SKY/WX    TMP DP  RH WIND       PRES   REMARKS
RAPID CTY ARPT SUNNY     95  55  26 N10       29.86F
PIERRE         MOSUNNY   92  72  51 SE12      29.71F HX  99
CUSTER         SUNNY     88  42  20 W18G26    30.07F
ELLSWORTH AFB  SUNNY     95  53  24 N14G21    29.86S
PHILIP         SUNNY    100  56  23 W20G25    29.77R HX  99
PINE RIDGE     SUNNY     95  51  22 NW18G25   29.91S
WINNER         FAIR     103  57  21 SW8       29.77F HX 102
$$

SDZ004>011-016>023-039-040-212000-
NORTHEAST SOUTH DAKOTA

CITY           SKY/WX    TMP DP  RH WIND       PRES   REMARKS
ABERDEEN       CLOUDY    81  75  82 SE16G23   29.74F
WATERTOWN      MOSUNNY   86  76  71 S13       29.81F HX  96
SISSETON         N/A     85  76  74 S16G24    29.78S
$$

SDZ017-020-022-023-036>040-048>070-212000-
SOUTHEAST SOUTH DAKOTA

CITY           SKY/WX    TMP DP  RH WIND       PRES   REMARKS
SIOUX FALLS    CLOUDY    84  75  74 S17       29.83S
HURON          CLOUDY    83  75  77 SE10      29.77F
CHAMBERLAIN    MOSUNNY   93  72  49 SE3       29.76S HX 100
MITCHELL       PTSUNNY   85  76  74 S13       29.79R
YANKTON        PTSUNNY   86  79  79 SE12      29.79F HX  99
$$

ABBREVIATIONS USED IN REMARKS
   TC - TEMPERATURE IN CELSIUS
  WCI - WIND CHILL INDEX
   HX - HEAT INDEX
  VSB - VISIBILITY



USA.gov is the U.S. government's official web portal to all federal, state and local government web resources and services.